[[{"header":{"parameterUnit":"m.s-1","parameterCategory":1,"la1":30.2991,"la2":30.254,"lo1":-89.0895,"lo2":-89.0444,"dy":0.0017,"dx":0.0017,"nx":28,"ny":28,"refTime":"2025-06-11T09:00:00:Z","depth":0,"parameterNumber":2,"parameterNumberName":"U-component_of_WINDS"},"data":[0,0,0,0,0,0,0,0,0,0,0,0,0,0,0,0,0,0,0,0,0,0,0,0,0,0,0,0,0,0,0,0,0,0,0,0,0,0,0,0,0,0,0,0,0,0,0,0,0,0,0,0,0,0,0,0,0,0,-2.7191,-2.7191,0,-2.7213,-2.7214,-2.7214,-2.7169,-2.7168,-2.7166,-2.7165,-2.7188,-2.719,-2.7192,0,0,0,0,0,0,0,0,0,0,0,0,0,-2.711,-2.7112,-2.7191,-2.7192,-2.7192,-2.7213,-2.7214,-2.7214,-2.717,-2.7168,-2.7166,-2.7164,-2.7187,-2.719,-2.7192,0,0,0,0,0,0,0,0,0,0,0,0,0,-2.714,-2.7112,-2.7191,-2.7172,-2.7171,-2.7213,-2.7214,-2.7214,-2.717,-2.7168,-2.7166,-2.7164,-2.7187,-2.7189,-2.7192,-2.7254,0,0,-2.7201,-2.7203,0,0,0,0,0,0,0,0,-2.7138,-2.7143,-2.7175,-2.7174,-2.7172,-2.7186,-2.7193,-2.7228,-2.7171,-2.717,-2.7165,-2.7162,-2.7189,-2.7192,-2.7201,-2.7255,-2.7256,-2.7202,-2.7203,-2.7205,-2.7206,0,0,0,0,0,0,0,-2.7136,-2.7142,-2.72,-2.7175,-2.7174,-2.7162,-2.7164,-2.72,-2.7192,-2.717,-2.7167,-2.717,-2.7188,-2.7198,-2.7201,-2.7257,-2.7202,-2.7204,-2.7206,-2.7207,-2.7361,-2.7363,0,0,0,0,0,0,-2.7137,-2.714,-2.7199,-2.7201,-2.7149,-2.7166,-2.7168,-2.7184,-2.7191,-2.719,-2.7172,-2.7168,-2.7194,-2.7198,-2.7202,-2.7273,-2.7205,-2.7207,-2.7209,-2.7359,-2.7362,-2.7364,0,0,0,0,0,0,-2.7135,-2.7142,-2.7198,-2.717,-2.7176,-2.7169,-2.7188,-2.7186,-2.7195,-2.7193,-2.7191,-2.7184,-2.7192,-2.7197,-2.7241,-2.7273,-2.7209,-2.7211,-2.7356,-2.736,-2.7363,-2.7416,0,0,0,0,0,0,-2.7133,-2.7142,-2.7166,-2.7171,-2.7178,-2.7238,-2.719,-2.7188,-2.7201,-2.7196,-2.7203,-2.7202,-2.7191,-2.7237,-2.7244,-2.7276,-2.7214,-2.7353,-2.7358,-2.7362,-2.7412,-2.7421,-2.743,0,0,0,0,0,-2.713,-2.7181,-2.7167,-2.7175,-2.7207,-2.724,-2.7244,-2.723,-2.7203,-2.7227,-2.7225,-2.7202,-2.7269,-2.7242,-2.7249,-2.7283,-2.7351,-2.7356,-2.7361,-2.7408,-2.7419,-2.7429,0,0,0,0,0,0,-2.718,-2.7181,-2.7166,-2.722,-2.723,-2.7232,-2.7261,-2.7243,-2.7261,-2.7256,-2.7238,-2.724,-2.7286,-2.7289,-2.7259,-2.7342,-2.7305,-2.7312,-2.7338,-2.7349,-2.7358,-2.7355,-2.7216,0,0,0,0,0,-2.7197,-2.7224,-2.7223,-2.727,-2.7276,-2.7268,-2.7282,-2.727,-2.728,-2.7284,-2.7285,-2.7296,-2.7319,-2.7335,-2.7356,-2.7413,-2.7412,-2.7439,-2.7448,-2.7455,-2.7461,-2.7489,-2.75,-2.7381,-2.7381,-2.7381,0,0,-2.7233,-2.7237,-2.7255,-2.728,-2.7287,-2.7314,-2.7272,-2.7303,-2.7323,-2.7289,-2.7329,-2.7331,-2.7341,-2.7391,-2.7413,-2.7395,-2.7494,-2.7462,-2.7468,-2.7469,-2.7496,-2.7507,-2.7517,-2.7385,-2.7384,-2.7383,0,0,-2.7312,-2.7318,-2.7357,-2.7364,-2.7374,-2.7368,-2.7378,-2.7383,-2.7382,-2.7423,-2.7397,-2.7421,-2.7461,-2.7469,-2.7479,-2.7559,-2.7538,-2.7567,-2.7612,-2.764,-2.7649,-2.7657,-2.7684,-2.7694,-2.7573,-2.7573,-2.7573,0,-2.7355,-2.7395,-2.7379,-2.7411,-2.7423,-2.7393,-2.7432,-2.744,-2.7457,-2.7465,-2.7444,-2.7493,-2.7499,-2.7549,-2.7568,-2.7578,-2.7587,-2.7565,-2.7649,-2.7657,-2.7665,-2.769,-2.77,-2.7576,-2.7576,-2.7576,-2.7575,0,-2.7446,-2.7474,-2.7504,-2.752,-2.7535,-2.7571,-2.756,-2.7577,-2.7564,-2.756,-2.7601,-2.7606,-2.7627,-2.7639,-2.7627,-2.7687,-2.7675,-2.7652,-2.7615,-2.768,-2.7703,-2.7712,-2.7581,-2.758,-2.7579,-2.7578,0,0,-2.7556,-2.7562,-2.7574,-2.7579,-2.7588,-2.761,-2.7643,-2.7663,-2.7677,-2.769,-2.7717,-2.7751,-2.773,-2.7741,-2.773,-2.7754,-2.7815,-2.7728,-2.7728,-2.7742,-2.7879,-2.7894,-2.7905,-2.7802,-2.7804,-2.7805,-2.7877,0,-2.7632,-2.7689,-2.7676,-2.7732,-2.7756,-2.7729,-2.7758,-2.7766,-2.7763,-2.7784,-2.7781,-2.7805,-2.7776,-2.7782,-2.7805,-2.7803,-2.7842,-2.7798,-2.7825,-2.7826,-2.7821,-2.7918,-2.7934,-2.8002,-2.7886,-2.7888,-2.7889,0,-2.7728,-2.7743,-2.7802,-2.7805,-2.7814,-2.7841,-2.7857,-2.7877,-2.7886,-2.7882,-2.7894,-2.7877,-2.791,-2.7873,-2.7917,-2.7887,-2.7898,-2.7898,-2.7901,-2.7901,-2.786,-2.7919,-2.8023,-2.8033,-2.7904,-2.7902,-2.7901,0,-2.7799,-2.7835,-2.7874,-2.788,-2.7885,-2.7904,-2.7907,-2.7914,-2.7926,-2.794,-2.7948,-2.7966,-2.7976,-2.799,-2.7979,-2.7954,-2.8024,-2.7987,-2.802,-2.802,-2.8034,-2.8033,-2.814,-2.8046,-2.8045,-2.8045,-2.8045,0,-2.7884,-2.7921,-2.7905,-2.7929,-2.7968,-2.7953,-2.7992,-2.7992,-2.7998,-2.8021,-2.7999,-2.8021,-2.8005,-2.8026,-2.8018,-2.8054,-2.8059,-2.8056,-2.8053,-2.8056,-2.8056,-2.8061,-2.8056,-2.8048,-2.8047,-2.8047,-2.8046,0,-2.797,-2.7962,-2.8001,-2.8003,-2.8004,-2.8033,-2.8034,-2.8055,-2.8051,-2.808,-2.8086,-2.8079,-2.8102,-2.8092,-2.8117,-2.8111,-2.8156,-2.8149,-2.8153,-2.815,-2.8183,-2.8179,-2.8295,-2.8308,-2.8207,-2.8208,-2.8209,0,-2.8024,-2.8051,-2.8054,-2.8068,-2.8072,-2.8094,-2.8106,-2.8092,-2.8105,-2.8116,-2.8136,-2.8157,-2.8172,-2.821,-2.8207,-2.8225,-2.8216,-2.8255,-2.8218,-2.8221,-2.8213,-2.8211,-2.8213,-2.8262,-2.8263,-2.8264,-2.8265,0,-2.8119,-2.8113,-2.8131,-2.8147,-2.8162,-2.8174,-2.8185,-2.8197,-2.8183,-2.8199,-2.8222,-2.8234,-2.8258,-2.8278,-2.8294,-2.8297,-2.8278,-2.8277,-2.8285,-2.8288,-2.8288,-2.8286,-2.8171,-2.8274,-2.8273,-2.8272,-2.8272,-2.8271,-2.8189,-2.821,-2.8216,-2.8236,-2.8242,-2.8252,-2.8272,-2.8269,-2.8288,-2.8306,-2.8297,-2.8322,-2.8329,-2.8348,-2.8353,-2.8373,-2.8357,-2.837,-2.8372,-2.8375,-2.8378,-2.8287,-2.8376,-2.8376,-2.8376,-2.8375,-2.8375,0,-2.8281,-2.8282,-2.8301,-2.8316,-2.8331,-2.8313,-2.8323,-2.8337,-2.836,-2.8368,-2.8383,-2.8408,-2.8427,-2.8426,-2.8443,-2.8459,-2.8451,-2.8464,-2.8461,-2.8462,-2.8392,-2.8382,-2.847,-2.847,-2.847,-2.847,-2.847,-2.847,-2.833,-2.8365,-2.836,-2.8397,-2.8399,-2.8423,-2.843,-2.8439,-2.8445,-2.8473,-2.8489,-2.8488,-2.8491,-2.8508,-2.8525,-2.8524,-2.853,-2.8546,-2.8542,-2.8476,-2.8467,-2.8458,-2.8448,-2.8548,-2.8548,-2.8609,-2.861,-2.861]},{"header":{"parameterUnit":"m.s-1","parameterCategory":1,"la1":30.2991,"la2":30.254,"lo1":-89.0895,"lo2":-89.0444,"dy":0.0017,"dx":0.0017,"nx":28,"ny":28,"refTime":"2025-06-11T09:00:00:Z","depth":0,"parameterNumber":3,"parameterNumberName":"V-component_of_WINDS"},"data":[0,0,0,0,0,0,0,0,0,0,0,0,0,0,0,0,0,0,0,0,0,0,0,0,0,0,0,0,0,0,0,0,0,0,0,0,0,0,0,0,0,0,0,0,0,0,0,0,0,0,0,0,0,0,0,0,0,0,4.3987,4.3987,0,4.4063,4.4064,4.4065,4.4007,4.4004,4.4001,4.3999,4.4075,4.4079,4.4084,0,0,0,0,0,0,0,0,0,0,0,0,0,4.3787,4.3791,4.3986,4.3987,4.3988,4.4063,4.4064,4.4065,4.4007,4.4004,4.4001,4.3998,4.4074,4.4079,4.4084,0,0,0,0,0,0,0,0,0,0,0,0,0,4.387,4.3792,4.3986,4.3968,4.3968,4.4063,4.4064,4.4065,4.4008,4.4004,4.4,4.3996,4.4072,4.4078,4.4085,4.4201,0,0,4.4105,4.4108,0,0,0,0,0,0,0,0,4.3865,4.3877,4.397,4.397,4.3969,4.4021,4.4022,4.4111,4.4009,4.3992,4.3999,4.3995,4.406,4.4067,4.409,4.4205,4.4208,4.4106,4.411,4.4112,4.4114,0,0,0,0,0,0,0,4.3859,4.3873,4.4017,4.3971,4.3971,4.3956,4.3963,4.4038,4.4046,4.3993,4.3989,4.3999,4.4059,4.4084,4.4091,4.4209,4.4105,4.4111,4.4115,4.4118,4.4422,4.4426,0,0,0,0,0,0,4.3856,4.3869,4.4014,4.4019,4.3907,4.3962,4.3971,4.4008,4.4046,4.4048,4.4003,4.3996,4.4075,4.4084,4.4094,4.4232,4.4112,4.4118,4.4122,4.4418,4.4423,4.4427,0,0,0,0,0,0,4.3852,4.3869,4.4011,4.3943,4.396,4.397,4.4013,4.4012,4.4037,4.4052,4.4053,4.4027,4.4072,4.4085,4.4175,4.4234,4.4121,4.4127,4.4413,4.4419,4.4425,4.4509,0,0,0,0,0,0,4.3846,4.3868,4.3913,4.3944,4.3964,4.4092,4.4016,4.4016,4.4048,4.4041,4.4075,4.4077,4.407,4.4165,4.4181,4.4241,4.4133,4.4408,4.4416,4.4423,4.4501,4.4517,4.4531,0,0,0,0,0,4.3839,4.3933,4.3916,4.3934,4.402,4.4096,4.4106,4.4097,4.4053,4.4098,4.4108,4.4076,4.4225,4.4175,4.4193,4.4255,4.4404,4.4413,4.4422,4.4494,4.4514,4.4531,0,0,0,0,0,0,4.3908,4.3937,4.3918,4.4025,4.4059,4.4086,4.4142,4.4119,4.4164,4.4155,4.4141,4.4149,4.4244,4.4258,4.4202,4.4369,4.4307,4.432,4.4356,4.4375,4.439,4.4384,4.4138,0,0,0,0,0,4.3936,4.3995,4.4017,4.411,4.4128,4.4132,4.4164,4.4154,4.4188,4.4201,4.4218,4.4251,4.4305,4.4341,4.4391,4.4503,4.4509,4.4554,4.4569,4.4582,4.4593,4.4652,4.4673,4.4458,4.4458,4.4457,0,0,4.3994,4.4017,4.4055,4.4124,4.4149,4.421,4.4144,4.4212,4.4256,4.4211,4.4297,4.4311,4.4346,4.4448,4.4493,4.4463,4.4654,4.4594,4.4603,4.4608,4.4664,4.4684,4.4702,4.4464,4.4463,4.4462,0,0,4.413,4.4154,4.4234,4.426,4.4298,4.43,4.4319,4.435,4.4357,4.4444,4.4411,4.4463,4.4557,4.4584,4.4609,4.4756,4.4727,4.4772,4.4851,4.4909,4.4926,4.4941,4.4993,4.5011,4.4784,4.4784,4.4784,0,4.4197,4.4289,4.4277,4.4347,4.4378,4.4341,4.442,4.4446,4.4498,4.452,4.4485,4.4602,4.4623,4.473,4.4765,4.4788,4.4808,4.4768,4.4925,4.494,4.4953,4.5002,4.5022,4.4789,4.4789,4.4788,4.4788,0,4.4368,4.4432,4.4492,4.4544,4.4581,4.4656,4.4655,4.4694,4.4681,4.4686,4.4774,4.4799,4.4853,4.4878,4.4865,4.4983,4.4963,4.4927,4.4865,4.4979,4.5025,4.5044,4.4797,4.4795,4.4793,4.4792,0,0,4.4551,4.4596,4.4618,4.4641,4.468,4.4728,4.48,4.4855,4.4888,4.4925,4.4985,4.5065,4.5032,4.5061,4.5051,4.5102,4.5215,4.506,4.506,4.5087,4.5345,4.5372,4.5394,4.5197,4.52,4.5203,4.5342,0,4.4689,4.4815,4.4807,4.4926,4.4984,4.4949,4.5012,4.5042,4.5049,4.5099,4.5106,4.5163,4.5115,4.5133,4.5182,4.5191,4.5267,4.5181,4.5251,4.5254,4.5243,4.5418,4.5446,4.5576,4.536,4.5363,4.5365,0,4.4867,4.4911,4.5036,4.5065,4.5089,4.5146,4.5194,4.5243,4.5276,4.5277,4.531,4.5291,4.5363,4.53,4.5398,4.534,4.5368,4.5377,4.5382,4.5387,4.5316,4.5428,4.5617,4.5636,4.5393,4.5391,4.5389,0,4.4986,4.5077,4.5163,4.5184,4.5221,4.5261,4.5278,4.5308,4.534,4.5382,4.5403,4.5453,4.548,4.5519,4.5513,4.5468,4.5613,4.5549,4.5616,4.5616,4.5648,4.5646,4.5844,4.5667,4.5667,4.5666,4.5666,0,4.5141,4.5219,4.5217,4.527,4.5356,4.5345,4.5429,4.5442,4.5468,4.5522,4.5495,4.5546,4.5536,4.5587,4.5583,4.5664,4.5677,4.568,4.5678,4.5682,4.5682,4.57,4.5691,4.5671,4.567,4.5669,4.5668,0,4.5289,4.5291,4.5383,4.541,4.5419,4.5481,4.5504,4.5553,4.5558,4.5627,4.5642,4.5649,4.5708,4.5706,4.5772,4.577,4.587,4.5857,4.5859,4.5856,4.5922,4.5916,4.6139,4.6167,4.5972,4.5974,4.5976,0,4.5388,4.5446,4.548,4.5515,4.5535,4.5591,4.5624,4.5615,4.5651,4.5693,4.5737,4.5793,4.5837,4.5932,4.5942,4.5993,4.5981,4.6056,4.5988,4.5991,4.5982,4.5978,4.5984,4.6069,4.6071,4.6073,4.6074,0,4.5562,4.556,4.5609,4.566,4.57,4.5739,4.5775,4.5804,4.5799,4.584,4.59,4.5934,4.6002,4.6058,4.6106,4.6122,4.6098,4.6095,4.6113,4.6118,4.6117,4.6118,4.5894,4.609,4.6089,4.6087,4.6087,4.6086,4.5688,4.5738,4.577,4.5826,4.5852,4.5885,4.5933,4.5944,4.5994,4.6048,4.604,4.6106,4.6137,4.6199,4.622,4.6271,4.6245,4.6271,4.6278,4.6284,4.6291,4.6109,4.628,4.628,4.6279,4.6279,4.6279,0,4.586,4.5879,4.593,4.5981,4.6025,4.5998,4.6036,4.6074,4.6133,4.6164,4.6208,4.6276,4.633,4.6345,4.6396,4.6434,4.6424,4.6448,4.6445,4.6449,4.6312,4.6291,4.6455,4.6455,4.6455,4.6455,4.6455,4.6455,4.5955,4.6039,4.6041,4.6137,4.6154,4.622,4.6243,4.6274,4.6299,4.6376,4.6421,4.643,4.6454,4.6507,4.6555,4.6558,4.6578,4.6606,4.6605,4.6476,4.6459,4.6442,4.6422,4.6611,4.6611,4.6737,4.6738,4.6739]}]]